Location: Unspecified
(0.0000°N, 0.0000°E)
Time: 13:44:40
(UTC+00:00)

Vanguard 1 Rocket - Pass Details

Date: 28 November 2019
Orbit: 650 x 4226 km, 34.3° (Epoch: 08 December)

Event Time Altitude Azimuth Distance (km) Brightness Sun altitude
Rises 12:59:54 0° 248° (WSW) 6,051 11.9 62.4°
Reaches altitude 10° 13:05:05 10° 233° (SW) 5,616 12.0 61.6°
Maximum altitude 13:18:18 22° 187° (S) 5,741 12.2 59.3°
Drops below altitude 10° 13:35:52 10° 143° (SE) 7,420 12.2 56.1°
Sets 13:44:48 0° 129° (SE) 8,420 12.2 54.4°
